RYR3EG EICK-EIDW

Flight info

Callsign RYR3EG
Flight time N/A
Altitude 23000
Route LUPOS7Z LUPOS DCT ABESI DCT BEGAR DCT SUTAL N852 DIK M624 BUB L608 DENUT L610 KOPUL Q60 OKSAW DCT PENWU DCT GOTEM GOTEM1R
Aircraft B738/M-SDE2E3FGHIRWXY/LB1

Departure

Time N/A
Airport Cork International Airport (EICK)

Arrival

Time 2026-02-18 12:01
Airport Dublin Airport (EIDW)
Time Latitude Longitude Altitude Speed Heading
2026-02-18 11:02 51.84848 -8.49057 510 ft 0 kts 70°
2026-02-18 11:21 51.84846 -8.49067 509 ft 0 kts 70°
2026-02-18 11:21 51.84841 -8.49090 508 ft 0 kts 70°
2026-02-18 11:22 51.84835 -8.49113 507 ft 0 kts 70°
2026-02-18 11:22 51.84830 -8.49136 506 ft 0 kts 72°
2026-02-18 11:22 51.84826 -8.49159 505 ft 0 kts 77°
2026-02-18 11:22 51.84822 -8.49183 504 ft 0 kts 55°
2026-02-18 11:23 51.84811 -8.49200 503 ft 0 kts 32°
2026-02-18 11:23 51.84797 -8.49209 503 ft 0 kts
2026-02-18 11:23 51.84782 -8.49207 502 ft 0 kts 344°
2026-02-18 11:23 51.84775 -8.49204 502 ft 0 kts 347°
2026-02-18 11:26 51.84779 -8.49206 502 ft 0 kts 347°
2026-02-18 11:26 51.84857 -8.49237 503 ft 0 kts 343°
2026-02-18 11:26 51.85002 -8.49306 503 ft 0 kts 341°
2026-02-18 11:26 51.85079 -8.49351 502 ft 0 kts 340°
2026-02-18 11:27 51.85124 -8.49472 496 ft 0 kts 238°
2026-02-18 11:27 51.85050 -8.49550 493 ft 0 kts 204°
2026-02-18 11:27 51.84962 -8.49592 491 ft 0 kts 174°
2026-02-18 11:27 51.84716 -8.49443 493 ft 0 kts 161°
2026-02-18 11:28 51.83878 -8.48950 667 ft 0 kts 160°
2026-02-18 11:28 51.82798 -8.48311 1738 ft 0 kts 160°
2026-02-18 11:28 51.81536 -8.47600 2695 ft 0 kts 162°
2026-02-18 11:28 51.80238 -8.46423 3640 ft 0 kts 136°
2026-02-18 11:29 51.79484 -8.43079 5048 ft 0 kts 90°
2026-02-18 11:29 51.81054 -8.38722 7005 ft 0 kts 34°
2026-02-18 11:29 51.82935 -8.37439 8258 ft 0 kts 15°
2026-02-18 11:30 51.84924 -8.36323 9415 ft 0 kts 22°
2026-02-18 11:30 51.86860 -8.34613 10396 ft 0 kts 31°
2026-02-18 11:30 51.88760 -8.32478 11376 ft 0 kts 34°
2026-02-18 11:30 51.90680 -8.30161 12506 ft 0 kts 34°
2026-02-18 11:31 51.92621 -8.27792 13459 ft 0 kts 34°
2026-02-18 11:31 51.94616 -8.25324 14467 ft 0 kts 34°
2026-02-18 11:31 51.96658 -8.22779 15422 ft 0 kts 34°
2026-02-18 11:31 51.98708 -8.20211 16410 ft 0 kts 34°
2026-02-18 11:32 52.01520 -8.16678 17756 ft 0 kts 34°
2026-02-18 11:32 52.02912 -8.14926 18415 ft 0 kts 33°
2026-02-18 11:32 52.05056 -8.12229 19397 ft 0 kts 33°
2026-02-18 11:32 52.07221 -8.09514 20372 ft 0 kts 33°
2026-02-18 11:33 52.09372 -8.06810 21295 ft 0 kts 33°
2026-02-18 11:33 52.13706 -8.01320 22415 ft 0 kts 35°
2026-02-18 11:33 52.15754 -7.98315 22401 ft 0 kts 40°
2026-02-18 11:34 52.17701 -7.95244 22400 ft 0 kts 40°
2026-02-18 11:34 52.19655 -7.92194 22399 ft 0 kts 39°
2026-02-18 11:34 52.21626 -7.89139 22403 ft 0 kts 39°
2026-02-18 11:34 52.23619 -7.86048 22408 ft 0 kts 39°
2026-02-18 11:35 52.25590 -7.82989 22415 ft 0 kts 39°
2026-02-18 11:35 52.27546 -7.79955 22421 ft 0 kts 39°
2026-02-18 11:35 52.29530 -7.76871 22428 ft 0 kts 39°
2026-02-18 11:35 52.31516 -7.73782 22435 ft 0 kts 39°
2026-02-18 11:36 52.33473 -7.70737 22442 ft 0 kts 39°
2026-02-18 11:36 52.35455 -7.67651 22448 ft 0 kts 39°
2026-02-18 11:36 52.37351 -7.64696 22452 ft 0 kts 39°
2026-02-18 11:36 52.39343 -7.61589 22453 ft 0 kts 39°
2026-02-18 11:37 52.41296 -7.58539 22453 ft 0 kts 39°
2026-02-18 11:37 52.45242 -7.52358 22453 ft 0 kts 39°
2026-02-18 11:37 52.47196 -7.49292 22452 ft 0 kts 39°
2026-02-18 11:38 52.49821 -7.45169 22453 ft 0 kts 39°
2026-02-18 11:38 52.51121 -7.43124 22452 ft 0 kts 39°
2026-02-18 11:38 52.53083 -7.40035 22452 ft 0 kts 39°
2026-02-18 11:38 52.55045 -7.36941 22452 ft 0 kts 39°
2026-02-18 11:39 52.57007 -7.33841 22400 ft 0 kts 40°
2026-02-18 11:39 52.58799 -7.31013 21975 ft 0 kts 40°
2026-02-18 11:39 52.60748 -7.27938 21433 ft 0 kts 40°
2026-02-18 11:39 52.62652 -7.24923 20866 ft 0 kts 40°
2026-02-18 11:40 52.64581 -7.21856 20283 ft 0 kts 40°
2026-02-18 11:40 52.66502 -7.18793 19681 ft 0 kts 41°
2026-02-18 11:40 52.68425 -7.15719 19068 ft 0 kts 41°
2026-02-18 11:40 52.71009 -7.11579 18312 ft 0 kts 41°
2026-02-18 11:41 52.72269 -7.09550 17987 ft 0 kts 41°
2026-02-18 11:41 52.75907 -7.03673 17031 ft 0 kts 42°
2026-02-18 11:41 52.77732 -7.00730 16552 ft 0 kts 42°
2026-02-18 11:42 52.79438 -6.97978 16102 ft 0 kts 42°
2026-02-18 11:42 52.80994 -6.95468 15693 ft 0 kts 42°
2026-02-18 11:42 52.82817 -6.92541 15218 ft 0 kts 41°
2026-02-18 11:42 52.84616 -6.89804 14767 ft 0 kts 40°
2026-02-18 11:43 52.86446 -6.87073 14307 ft 0 kts 40°
2026-02-18 11:43 52.88116 -6.84561 13885 ft 0 kts 40°
2026-02-18 11:43 52.89895 -6.81877 13433 ft 0 kts 40°
2026-02-18 11:43 52.91578 -6.79333 12998 ft 0 kts 40°
2026-02-18 11:44 52.93269 -6.76774 12566 ft 0 kts 40°
2026-02-18 11:44 52.94986 -6.74171 12127 ft 0 kts 40°
2026-02-18 11:44 52.96682 -6.71599 11692 ft 0 kts 41°
2026-02-18 11:44 52.98254 -6.69212 11290 ft 0 kts 41°
2026-02-18 11:45 52.99894 -6.66704 10863 ft 0 kts 44°
2026-02-18 11:45 53.02763 -6.61134 10016 ft 0 kts 52°
2026-02-18 11:45 53.04083 -6.58440 9621 ft 0 kts 52°
2026-02-18 11:46 53.05868 -6.54832 9266 ft 0 kts 52°
2026-02-18 11:46 53.06723 -6.53098 8986 ft 0 kts 53°
2026-02-18 11:46 53.08024 -6.50491 8604 ft 0 kts 53°
2026-02-18 11:46 53.09198 -6.48191 8386 ft 0 kts 46°
2026-02-18 11:47 53.10559 -6.46579 8286 ft 0 kts 23°
2026-02-18 11:47 53.12372 -6.46052 8014 ft 0 kts 353°
2026-02-18 11:47 53.14137 -6.46832 7710 ft 0 kts 337°
2026-02-18 11:47 53.15841 -6.47915 7398 ft 0 kts 337°
2026-02-18 11:48 53.17504 -6.48951 7099 ft 0 kts 338°
2026-02-18 11:48 53.19103 -6.50148 6804 ft 0 kts 324°
2026-02-18 11:48 53.20293 -6.52193 6539 ft 0 kts 293°
2026-02-18 11:48 53.20700 -6.54956 6486 ft 0 kts 265°
2026-02-18 11:49 53.20209 -6.58511 6482 ft 0 kts 244°
2026-02-18 11:49 53.19248 -6.62733 6476 ft 0 kts 245°
2026-02-18 11:49 53.18676 -6.65296 6478 ft 0 kts 248°
2026-02-18 11:50 53.18486 -6.68707 6474 ft 0 kts 274°
2026-02-18 11:50 53.18695 -6.70559 6485 ft 0 kts 277°
2026-02-18 11:50 53.19017 -6.73325 6482 ft 0 kts 276°
2026-02-18 11:50 53.19324 -6.76111 6477 ft 0 kts 276°
2026-02-18 11:51 53.19632 -6.78914 6479 ft 0 kts 276°
2026-02-18 11:51 53.19959 -6.81715 6476 ft 0 kts 282°
2026-02-18 11:51 53.20736 -6.84275 6477 ft 0 kts 306°
2026-02-18 11:51 53.21835 -6.86305 6487 ft 0 kts 309°
2026-02-18 11:52 53.23008 -6.88499 6480 ft 0 kts 308°
2026-02-18 11:52 53.24295 -6.90508 6471 ft 0 kts 327°
2026-02-18 11:52 53.25999 -6.91310 6476 ft 0 kts
2026-02-18 11:52 53.27717 -6.90631 6485 ft 0 kts 30°
2026-02-18 11:53 53.29034 -6.88799 6481 ft 0 kts 57°
2026-02-18 11:53 53.30900 -6.83981 6455 ft 0 kts 60°
2026-02-18 11:53 53.31799 -6.81692 6289 ft 0 kts 60°
2026-02-18 11:54 53.32731 -6.79305 6017 ft 0 kts 60°
2026-02-18 11:54 53.33627 -6.77019 5913 ft 0 kts 60°
2026-02-18 11:54 53.34491 -6.74829 5850 ft 0 kts 61°
2026-02-18 11:54 53.35353 -6.72614 5778 ft 0 kts 60°
2026-02-18 11:55 53.36611 -6.70001 5654 ft 0 kts 38°
2026-02-18 11:55 53.37543 -6.69302 5509 ft 0 kts 13°
2026-02-18 11:55 53.39040 -6.69125 5425 ft 0 kts
2026-02-18 11:55 53.40393 -6.68948 5417 ft 0 kts
2026-02-18 11:56 53.41645 -6.68767 5295 ft 0 kts
2026-02-18 11:56 53.42861 -6.68582 5184 ft 0 kts
2026-02-18 11:56 53.44090 -6.68380 4996 ft 0 kts 11°
2026-02-18 11:56 53.45179 -6.67620 4860 ft 0 kts 48°
2026-02-18 11:57 53.45746 -6.65968 4631 ft 0 kts 86°
2026-02-18 11:57 53.45447 -6.62541 4173 ft 0 kts 97°
2026-02-18 11:57 53.45419 -6.60848 3992 ft 0 kts 101°
2026-02-18 11:58 53.45317 -6.58580 3728 ft 0 kts 99°
2026-02-18 11:58 53.45271 -6.57474 3599 ft 0 kts 100°
2026-02-18 11:58 53.45193 -6.55800 3419 ft 0 kts 100°
2026-02-18 11:58 53.45124 -6.54159 3231 ft 0 kts 100°
2026-02-18 11:59 53.45048 -6.52520 3052 ft 0 kts 101°
2026-02-18 11:59 53.44956 -6.50960 2944 ft 0 kts 100°
2026-02-18 11:59 53.44873 -6.49480 2793 ft 0 kts 101°
2026-02-18 11:59 53.44809 -6.48342 2672 ft 0 kts 101°
2026-02-18 12:00 53.44729 -6.46879 2491 ft 0 kts 101°
2026-02-18 12:00 53.44651 -6.45414 2331 ft 0 kts 100°
2026-02-18 12:00 53.44573 -6.43941 2178 ft 0 kts 100°
2026-02-18 12:00 53.44503 -6.42625 1947 ft 0 kts 99°
2026-02-18 12:01 53.44438 -6.41411 1846 ft 0 kts 101°
2026-02-18 12:01 53.44295 -6.38769 1541 ft 0 kts 100°
2026-02-18 12:01 53.44235 -6.37624 1417 ft 0 kts 100°
2026-02-18 12:02 53.44165 -6.36332 1262 ft 0 kts 101°
2026-02-18 12:02 53.44093 -6.35015 1104 ft 0 kts 101°
2026-02-18 12:02 53.44031 -6.33849 977 ft 0 kts 101°
2026-02-18 12:02 53.43958 -6.32553 830 ft 0 kts 101°
2026-02-18 12:03 53.43889 -6.31234 648 ft 0 kts 101°
2026-02-18 12:03 53.43818 -6.29970 507 ft 0 kts 101°
2026-02-18 12:03 53.43767 -6.28636 362 ft 0 kts 101°
2026-02-18 12:03 53.43681 -6.27304 258 ft 0 kts 100°
2026-02-18 12:04 53.43618 -6.26187 252 ft 0 kts 97°
2026-02-18 12:04 53.43579 -6.25491 252 ft 0 kts 102°
2026-02-18 12:04 53.43489 -6.25091 252 ft 0 kts 124°
2026-02-18 12:04 53.43373 -6.24754 252 ft 0 kts 111°
2026-02-18 12:05 53.43372 -6.24748 252 ft 0 kts 111°
2026-02-18 12:05 53.43371 -6.24744 251 ft 0 kts 111°
2026-02-18 12:05 53.43358 -6.24679 251 ft 0 kts 106°
2026-02-18 12:06 53.43347 -6.24489 252 ft 0 kts 104°
2026-02-18 12:06 53.43188 -6.24434 252 ft 0 kts 238°
2026-02-18 12:06 53.43190 -6.24548 252 ft 0 kts 285°
2026-02-18 12:06 53.43157 -6.24621 251 ft 0 kts 184°
2026-02-18 12:07 53.43093 -6.24632 252 ft 0 kts 185°